When you browse on this site, cookies collect data to enhance your experience and personalize the content and advertising you see.
Visit our Privacy Policy to learn more. By continuing to use the site, you agree to this use of cookies and data.
  • In Hungary
  • List of Countries
  • For 7 days
  • Water Temperature
  • Satellite Maps
  • Weather Map
  • News
  • Weather Widgets
  • user-avatar
    Login

    Hourly Weather Lenina

    Today, 16 July, Tuesday

    Time Temperature Precipitation Wind Pressure Humidity
    00:00 +20°C° 0 mm 2 mps 740 mmHg 58%
    01:00 +19°C° 0.6 mm 2 mps 740 mmHg 67%
    02:00 +19°C° 0.6 mm 2 mps 740 mmHg 77%
    03:00 +18°C° 0 mm 2 mps 739 mmHg 85%
    04:00 +18°C° 1.1 mm 2 mps 739 mmHg 87%
    05:00 +18°C° 1.1 mm 2 mps 739 mmHg 90%
    06:00 +19°C° 1.1 mm 1 mps 739 mmHg 93%
    07:00 +18°C° 3.4 mm 3 mps 739 mmHg 92%
    08:00 +18°C° 3.4 mm 4 mps 739 mmHg 92%
    09:00 +16°C° 0 mm 5 mps 739 mmHg 94%
    10:00 +19°C° 0.9 mm 5 mps 739 mmHg 87%
    11:00 +20°C° 0.9 mm 5 mps 739 mmHg 81%
    12:00 +22°C° 0.9 mm 6 mps 739 mmHg 74%
    13:00 +21°C° 1.3 mm 5 mps 739 mmHg 78%
    14:00 +20°C° 1.3 mm 5 mps 738 mmHg 81%
    15:00 +20°C° 0 mm 4 mps 738 mmHg 87%
    16:00 +20°C° 0.9 mm 3 mps 738 mmHg 85%
    17:00 +20°C° 0.9 mm 3 mps 738 mmHg 82%
    18:00 +21°C° 0.9 mm 2 mps 738 mmHg 80%
    19:00 +20°C° 0.8 mm 2 mps 738 mmHg 83%
    20:00 +19°C° 0.8 mm 2 mps 738 mmHg 86%
    21:00 +18°C° 0.8 mm 2 mps 738 mmHg 89%
    22:00 +18°C° 0.2 mm 2 mps 738 mmHg 92%
    23:00 +18°C° 0.2 mm 3 mps 738 mmHg 94%

    Tomorrow, 17 July, Wednesday

    Time Temperature Precipitation Wind Pressure Humidity
    00:00 +17°C° 0.2 mm 3 mps 738 mmHg 97%
    01:00 +17°C° 0 mm 3 mps 738 mmHg 97%
    02:00 +17°C° 0 mm 3 mps 739 mmHg 96%
    03:00 +17°C° 0 mm 3 mps 739 mmHg 96%
    04:00 +17°C° 0 mm 3 mps 739 mmHg 96%
    05:00 +17°C° 0 mm 3 mps 739 mmHg 95%
    06:00 +17°C° 0 mm 3 mps 739 mmHg 95%
    07:00 +18°C° 0 mm 3 mps 739 mmHg 88%
    08:00 +20°C° 0 mm 3 mps 739 mmHg 81%
    09:00 +21°C° 0 mm 3 mps 740 mmHg 74%
    10:00 +24°C° 0 mm 3 mps 740 mmHg 67%
    11:00 +25°C° 0 mm 3 mps 740 mmHg 61%
    12:00 +26°C° 0 mm 4 mps 740 mmHg 54%
    13:00 +27°C° 0.1 mm 4 mps 740 mmHg 52%
    14:00 +27°C° 0.1 mm 4 mps 740 mmHg 51%
    15:00 +27°C° 0.1 mm 4 mps 740 mmHg 49%
    16:00 +27°C° 0 mm 4 mps 740 mmHg 52%
    17:00 +26°C° 0 mm 3 mps 740 mmHg 55%
    18:00 +26°C° 0 mm 2 mps 740 mmHg 58%
    19:00 +24°C° 0 mm 2 mps 740 mmHg 61%
    20:00 +23°C° 0 mm 2 mps 740 mmHg 65%
    21:00 +21°C° 0 mm 2 mps 740 mmHg 69%
    22:00 +21°C° 0 mm 1 mps 741 mmHg 69%
    23:00 +21°C° 0 mm 1 mps 741 mmHg 69%

    Day after tomorrow, 18 July, Thursday

    Time Temperature Precipitation Wind Pressure Humidity
    00:00 +20°C° 0 mm 1 mps 741 mmHg 69%
    01:00 +20°C° 0 mm 1 mps 741 mmHg 70%
    02:00 +20°C° 0 mm 1 mps 741 mmHg 71%
    03:00 +17°C° 0 mm 0 mps 741 mmHg 72%
    04:00 +18°C° 0 mm 0 mps 741 mmHg 73%
    05:00 +18°C° 0 mm 0 mps 741 mmHg 73%
    06:00 +18°C° 0 mm 0 mps 741 mmHg 74%
    07:00 +20°C° 0 mm 0 mps 741 mmHg 67%
    08:00 +22°C° 0 mm 0 mps 741 mmHg 60%
    09:00 +24°C° 0 mm 0 mps 742 mmHg 52%
    10:00 +26°C° 0 mm 1 mps 742 mmHg 48%
    11:00 +27°C° 0 mm 1 mps 742 mmHg 43%
    12:00 +28°C° 0 mm 2 mps 742 mmHg 38%
    13:00 +28°C° 0 mm 2 mps 742 mmHg 38%
    14:00 +28°C° 0 mm 2 mps 742 mmHg 38%
    15:00 +28°C° 0 mm 2 mps 742 mmHg 38%
    16:00 +28°C° 0 mm 2 mps 742 mmHg 40%
    17:00 +28°C° 0 mm 2 mps 742 mmHg 41%
    18:00 +28°C° 0 mm 2 mps 742 mmHg 42%
    19:00 +26°C° 0 mm 2 mps 742 mmHg 47%
    20:00 +24°C° 0 mm 2 mps 743 mmHg 53%
    21:00 +23°C° 0 mm 1 mps 743 mmHg 58%
    22:00 +22°C° 0 mm 1 mps 743 mmHg 59%
    23:00 +20°C° 0 mm 2 mps 743 mmHg 61%

    19 July, Friday

    Time Temperature Precipitation Wind Pressure Humidity
    00:00 +20°C° 0 mm 2 mps 743 mmHg 62%
    01:00 +20°C° 0 mm 1 mps 744 mmHg 64%
    02:00 +19°C° 0 mm 1 mps 744 mmHg 65%
    03:00 +19°C° 0 mm 1 mps 744 mmHg 67%
    04:00 +19°C° 0 mm 1 mps 744 mmHg 67%
    05:00 +19°C° 0 mm 1 mps 744 mmHg 68%
    06:00 +19°C° 0 mm 1 mps 744 mmHg 69%
    07:00 +21°C° 0 mm 1 mps 745 mmHg 62%
    08:00 +23°C° 0 mm 1 mps 745 mmHg 56%
    09:00 +25°C° 0 mm 1 mps 745 mmHg 50%
    10:00 +26°C° 0 mm 2 mps 745 mmHg 46%
    11:00 +27°C° 0 mm 2 mps 745 mmHg 42%
    12:00 +28°C° 0 mm 3 mps 745 mmHg 38%
    13:00 +28°C° 0 mm 3 mps 745 mmHg 37%
    14:00 +29°C° 0 mm 3 mps 745 mmHg 35%
    15:00 +29°C° 0 mm 3 mps 745 mmHg 34%
    16:00 +29°C° 0 mm 3 mps 745 mmHg 36%
    17:00 +28°C° 0 mm 3 mps 745 mmHg 38%
    18:00 +28°C° 0 mm 3 mps 745 mmHg 40%
    19:00 +26°C° 0 mm 2 mps 745 mmHg 46%
    20:00 +24°C° 0 mm 2 mps 746 mmHg 52%
    21:00 +21°C° 0 mm 2 mps 746 mmHg 58%
    22:00 +21°C° 0 mm 2 mps 746 mmHg 59%
    23:00 +20°C° 0 mm 2 mps 746 mmHg 60%

    20 July, Saturday

    Time Temperature Precipitation Wind Pressure Humidity
    00:00 +19°C° 0 mm 2 mps 747 mmHg 62%
    01:00 +20°C° 0 mm 1 mps 747 mmHg 65%
    02:00 +19°C° 0 mm 1 mps 747 mmHg 68%
    03:00 +19°C° 0 mm 1 mps 747 mmHg 71%
    04:00 +19°C° 0 mm 1 mps 747 mmHg 72%
    05:00 +19°C° 0 mm 1 mps 747 mmHg 73%
    06:00 +20°C° 0 mm 1 mps 748 mmHg 74%
    07:00 +21°C° 0 mm 1 mps 748 mmHg 68%
    08:00 +23°C° 0 mm 1 mps 748 mmHg 62%
    09:00 +25°C° 0 mm 1 mps 748 mmHg 56%
    10:00 +26°C° 0 mm 1 mps 748 mmHg 50%
    11:00 +27°C° 0 mm 1 mps 748 mmHg 45%
    12:00 +29°C° 0 mm 1 mps 749 mmHg 39%
    13:00 +29°C° 0 mm 1 mps 748 mmHg 36%
    14:00 +29°C° 0 mm 1 mps 748 mmHg 34%
    15:00 +30°C° 0 mm 1 mps 748 mmHg 32%
    16:00 +30°C° 0 mm 1 mps 748 mmHg 32%
    17:00 +29°C° 0 mm 1 mps 748 mmHg 33%
    18:00 +29°C° 0 mm 1 mps 748 mmHg 33%
    19:00 +27°C° 0 mm 1 mps 748 mmHg 37%
    20:00 +25°C° 0 mm 1 mps 748 mmHg 41%
    21:00 +23°C° 0 mm 1 mps 748 mmHg 45%
    22:00 +23°C° 0 mm 1 mps 748 mmHg 46%
    23:00 +22°C° 0 mm 1 mps 748 mmHg 47%

    21 July, Sunday

    Time Temperature Precipitation Wind Pressure Humidity
    00:00 +22°C° 0 mm 1 mps 748 mmHg 49%
    01:00 +21°C° 0 mm 1 mps 748 mmHg 50%
    02:00 +21°C° 0 mm 1 mps 748 mmHg 52%
    03:00 +20°C° 0 mm 1 mps 748 mmHg 53%
    04:00 +20°C° 0 mm 1 mps 748 mmHg 55%
    05:00 +21°C° 0 mm 1 mps 748 mmHg 56%
    06:00 +21°C° 0 mm 1 mps 748 mmHg 58%
    07:00 +23°C° 0 mm 1 mps 748 mmHg 53%
    08:00 +25°C° 0 mm 2 mps 748 mmHg 48%
    09:00 +27°C° 0 mm 2 mps 748 mmHg 44%
    10:00 +28°C° 0 mm 2 mps 748 mmHg 40%
    11:00 +29°C° 0 mm 2 mps 748 mmHg 37%
    12:00 +30°C° 0 mm 1 mps 748 mmHg 34%
    13:00 +31°C° 0 mm 1 mps 748 mmHg 32%
    14:00 +31°C° 0 mm 1 mps 748 mmHg 31%
    15:00 +32°C° 0 mm 1 mps 747 mmHg 30%
    16:00 +31°C° 0 mm 1 mps 747 mmHg 31%
    17:00 +31°C° 0 mm 1 mps 747 mmHg 32%
    18:00 +31°C° 0 mm 1 mps 747 mmHg 33%
    19:00 +28°C° 0 mm 2 mps 747 mmHg 42%
    20:00 +26°C° 0 mm 2 mps 747 mmHg 51%
    21:00 +24°C° 0 mm 2 mps 748 mmHg 61%
    22:00 +23°C° 0 mm 2 mps 747 mmHg 66%
    23:00 +21°C° 0 mm 2 mps 747 mmHg 71%
    Show more